[[{"header":{"parameterUnit":"m.s-1","parameterCategory":1,"la1":30.2991,"la2":30.254,"lo1":-89.0895,"lo2":-89.0444,"dy":0.0017,"dx":0.0017,"nx":28,"ny":28,"refTime":"2023-10-21T09:00:00:Z","depth":0,"parameterNumber":2,"parameterNumberName":"U-component_of_WINDS"},"data":[0,0,0,0,0,0,0,0,0,0,0,0,0,0,0,0,0,0,0,0,0,0,0,0,0,0,0,0,0,0,0,0,0,0,0,0,0,0,0,0,0,0,0,0,0,0,0,0,0,0,0,0,0,0,0,0,0,0,1.1253,1.1254,0,1.134,1.1341,1.1342,1.1332,1.1331,1.1329,1.1328,1.1422,1.1426,1.143,0,0,0,0,0,0,0,0,0,0,0,0,0,1.108,1.1083,1.1253,1.1254,1.1255,1.134,1.1341,1.1342,1.1332,1.1331,1.1329,1.1327,1.1421,1.1425,1.143,0,0,0,0,0,0,0,0,0,0,0,0,0,1.116,1.1084,1.1253,1.126,1.1261,1.134,1.1341,1.1343,1.1333,1.1331,1.1328,1.1326,1.1419,1.1425,1.1431,1.1509,0,0,1.1448,1.1451,0,0,0,0,0,0,0,0,1.1155,1.1166,1.1258,1.126,1.1261,1.1323,1.1315,1.1399,1.1333,1.1306,1.1328,1.1325,1.1391,1.1399,1.142,1.1513,1.1517,1.1449,1.1452,1.1455,1.1456,0,0,0,0,0,0,0,1.115,1.1162,1.1287,1.1259,1.1261,1.126,1.1269,1.1331,1.136,1.1308,1.1307,1.1318,1.1392,1.1415,1.1422,1.1518,1.1449,1.1454,1.1457,1.1459,1.1677,1.1679,0,0,0,0,0,0,1.1142,1.1158,1.1285,1.129,1.1202,1.1265,1.1275,1.1305,1.1359,1.1365,1.1319,1.1317,1.1406,1.1416,1.1426,1.1519,1.1455,1.146,1.1463,1.1675,1.1677,1.168,0,0,0,0,0,0,1.1138,1.1153,1.1281,1.1224,1.124,1.127,1.1304,1.1308,1.1331,1.1367,1.1373,1.1337,1.1405,1.1418,1.1487,1.1522,1.1463,1.1468,1.1672,1.1675,1.1679,1.1706,0,0,0,0,0,0,1.1133,1.1152,1.1181,1.1224,1.1243,1.134,1.1307,1.1312,1.1341,1.1338,1.1386,1.1392,1.1404,1.1479,1.1493,1.1529,1.1472,1.1669,1.1673,1.1678,1.1702,1.171,1.1717,0,0,0,0,0,1.1127,1.1187,1.1183,1.1198,1.128,1.1342,1.1353,1.1365,1.1343,1.1373,1.1396,1.139,1.1516,1.1486,1.1502,1.154,1.1667,1.1672,1.1677,1.1699,1.1709,1.1717,0,0,0,0,0,0,1.115,1.1193,1.1189,1.1265,1.1299,1.1341,1.1379,1.1375,1.1418,1.1415,1.1429,1.144,1.1509,1.1532,1.1498,1.1617,1.1588,1.1597,1.16,1.1609,1.1616,1.1609,1.1477,0,0,0,0,0,1.1163,1.1209,1.1245,1.1308,1.1326,1.1349,1.1377,1.1382,1.142,1.1435,1.1464,1.1501,1.1549,1.158,1.1627,1.1705,1.1715,1.1739,1.1747,1.1752,1.176,1.1801,1.1812,1.1697,1.1697,1.1697,0,0,1.1192,1.1221,1.125,1.1313,1.1341,1.1389,1.1362,1.1414,1.1449,1.1444,1.151,1.1532,1.1575,1.1649,1.1683,1.167,1.1793,1.1759,1.1764,1.1768,1.1808,1.1818,1.1828,1.1701,1.17,1.17,0,0,1.1269,1.1296,1.135,1.1378,1.142,1.1434,1.1447,1.1489,1.1502,1.1568,1.1565,1.1608,1.169,1.172,1.1746,1.1831,1.1827,1.1846,1.1884,1.1925,1.1934,1.1942,1.1971,1.1981,1.1853,1.1853,1.1854,0,1.13,1.137,1.1379,1.1431,1.1458,1.1453,1.1509,1.1536,1.1591,1.161,1.1595,1.1696,1.1725,1.1804,1.1825,1.1847,1.1862,1.1841,1.1931,1.1939,1.1947,1.1975,1.1986,1.1855,1.1855,1.1855,1.1855,0,1.1405,1.1454,1.1493,1.1544,1.1576,1.163,1.1647,1.1679,1.1681,1.1698,1.1765,1.1799,1.1851,1.187,1.1875,1.195,1.194,1.1928,1.1899,1.196,1.1986,1.1997,1.1858,1.1858,1.1857,1.1856,0,0,1.15,1.1553,1.1567,1.1589,1.1634,1.1672,1.1725,1.1773,1.1799,1.1837,1.1882,1.195,1.1938,1.1967,1.1975,1.201,1.2073,1.1993,1.1994,1.2005,1.2157,1.2165,1.2177,1.207,1.2072,1.2074,1.2153,0,1.1579,1.1671,1.168,1.1762,1.1807,1.1801,1.1847,1.188,1.1896,1.1937,1.1956,1.2003,1.1984,1.2001,1.2036,1.2058,1.2103,1.2053,1.2111,1.2113,1.21,1.2191,1.2201,1.2273,1.2163,1.2165,1.2166,0,1.1685,1.1723,1.1809,1.1845,1.1864,1.1905,1.1949,1.1988,1.2024,1.2034,1.2065,1.2067,1.2122,1.2091,1.2166,1.2131,1.2155,1.2169,1.2172,1.2178,1.2143,1.2198,1.2297,1.2308,1.2183,1.2181,1.218,0,1.1743,1.1817,1.1877,1.1896,1.194,1.1968,1.1988,1.2022,1.205,1.2089,1.2107,1.2153,1.2178,1.2213,1.2227,1.2204,1.2301,1.2272,1.231,1.2309,1.233,1.2329,1.2433,1.2348,1.2348,1.2347,1.2347,0,1.1831,1.1883,1.1903,1.194,1.1998,1.2008,1.2066,1.2085,1.2115,1.2155,1.2155,1.2193,1.221,1.2251,1.2262,1.2321,1.2333,1.2342,1.2344,1.2342,1.234,1.2358,1.2353,1.235,1.235,1.2349,1.2349,0,1.1906,1.1921,1.1986,1.2021,1.2031,1.2073,1.2103,1.2139,1.2154,1.2205,1.2218,1.2242,1.229,1.2308,1.2367,1.2375,1.2443,1.2442,1.243,1.243,1.2466,1.2462,1.2585,1.2601,1.2506,1.2507,1.2508,0,1.196,1.2,1.2039,1.2065,1.2085,1.2128,1.2155,1.2167,1.2196,1.2238,1.2269,1.2316,1.2354,1.2431,1.2455,1.2499,1.2499,1.2539,1.2506,1.2501,1.2498,1.2494,1.2498,1.2545,1.2546,1.2546,1.2547,0,1.2055,1.206,1.2099,1.214,1.2172,1.2206,1.2239,1.226,1.2276,1.2309,1.2357,1.2386,1.2445,1.2492,1.2537,1.2558,1.2555,1.2557,1.2568,1.2565,1.2556,1.256,1.2445,1.2554,1.2554,1.2553,1.2553,1.2552,1.212,1.2154,1.2186,1.2229,1.2254,1.2284,1.2318,1.2337,1.2376,1.2424,1.2428,1.2479,1.2513,1.2573,1.2596,1.2637,1.2626,1.2642,1.2646,1.265,1.2652,1.255,1.2645,1.2645,1.2645,1.2645,1.2645,0,1.2213,1.2233,1.2272,1.2316,1.235,1.2342,1.2378,1.2406,1.2451,1.2482,1.2519,1.2573,1.2617,1.2643,1.2688,1.2715,1.2715,1.2726,1.2724,1.2729,1.266,1.2645,1.2726,1.2726,1.2726,1.2726,1.2726,1.2726,1.2265,1.2322,1.2331,1.2399,1.2419,1.2468,1.2488,1.2515,1.254,1.2599,1.2636,1.2652,1.268,1.2727,1.2767,1.2773,1.2789,1.2802,1.2807,1.2742,1.2734,1.2726,1.2712,1.2806,1.2806,1.2873,1.2873,1.2874]},{"header":{"parameterUnit":"m.s-1","parameterCategory":1,"la1":30.2991,"la2":30.254,"lo1":-89.0895,"lo2":-89.0444,"dy":0.0017,"dx":0.0017,"nx":28,"ny":28,"refTime":"2023-10-21T09:00:00:Z","depth":0,"parameterNumber":3,"parameterNumberName":"V-component_of_WINDS"},"data":[0,0,0,0,0,0,0,0,0,0,0,0,0,0,0,0,0,0,0,0,0,0,0,0,0,0,0,0,0,0,0,0,0,0,0,0,0,0,0,0,0,0,0,0,0,0,0,0,0,0,0,0,0,0,0,0,0,0,2.9648,2.9647,0,2.958,2.9579,2.9578,2.9562,2.9562,2.9562,2.9563,2.9485,2.9482,2.948,0,0,0,0,0,0,0,0,0,0,0,0,0,2.9757,2.9755,2.9648,2.9647,2.9646,2.958,2.9579,2.9578,2.9561,2.9562,2.9563,2.9563,2.9486,2.9483,2.948,0,0,0,0,0,0,0,0,0,0,0,0,0,2.9701,2.9754,2.9648,2.963,2.9628,2.958,2.9579,2.9578,2.9561,2.9562,2.9563,2.9563,2.9487,2.9483,2.9479,2.9442,0,0,2.9468,2.9466,0,0,0,0,0,0,0,0,2.9704,2.9697,2.9634,2.9631,2.9629,2.958,2.9589,2.9532,2.9561,2.9586,2.9563,2.9564,2.9515,2.9509,2.9495,2.9438,2.9435,2.9467,2.9465,2.9464,2.9462,0,0,0,0,0,0,0,2.9708,2.97,2.9621,2.9633,2.963,2.9623,2.9616,2.9578,2.9547,2.9584,2.9583,2.9575,2.9514,2.9498,2.9493,2.9434,2.9468,2.9464,2.9462,2.946,2.9342,2.9342,0,0,0,0,0,0,2.9716,2.9703,2.9623,2.9619,2.9669,2.9621,2.9613,2.9595,2.9548,2.9542,2.9575,2.9575,2.9505,2.9497,2.949,2.9443,2.9464,2.946,2.9458,2.9343,2.9342,2.9341,0,0,0,0,0,0,2.9719,2.9709,2.9626,2.9661,2.965,2.9618,2.9598,2.9593,2.9578,2.9541,2.9535,2.9565,2.9505,2.9495,2.9454,2.944,2.9458,2.9455,2.9344,2.9343,2.9342,2.9349,0,0,0,0,0,0,2.9722,2.971,2.9697,2.9661,2.9648,2.9594,2.9597,2.9591,2.9572,2.9571,2.953,2.9524,2.9505,2.946,2.9451,2.9435,2.9452,2.9345,2.9344,2.9342,2.9349,2.9348,2.9346,0,0,0,0,0,2.9726,2.97,2.9697,2.9687,2.9632,2.9593,2.9585,2.9566,2.9571,2.9557,2.9533,2.9525,2.9443,2.9456,2.9445,2.9428,2.9346,2.9344,2.9342,2.935,2.9348,2.9346,0,0,0,0,0,0,2.9733,2.9695,2.9691,2.9653,2.9627,2.959,2.9572,2.9564,2.9534,2.9534,2.9509,2.95,2.9461,2.944,2.9455,2.9389,2.9395,2.939,2.9404,2.9402,2.94,2.9405,2.9449,0,0,0,0,0,2.9731,2.9705,2.9672,2.9642,2.9629,2.9603,2.9585,2.9573,2.9544,2.9531,2.9505,2.9475,2.9442,2.9421,2.9389,2.9347,2.9337,2.933,2.9328,2.9327,2.9323,2.9299,2.9295,2.9335,2.9335,2.9335,0,0,2.9724,2.9701,2.9685,2.9643,2.9621,2.9593,2.9593,2.9563,2.9541,2.9526,2.9487,2.9466,2.943,2.9389,2.9369,2.9371,2.931,2.9324,2.9324,2.932,2.9296,2.9293,2.9289,2.9334,2.9334,2.9334,0,0,2.9699,2.9679,2.9652,2.9631,2.9599,2.9582,2.9575,2.954,2.9527,2.9488,2.9475,2.9448,2.9392,2.9367,2.9347,2.9314,2.9305,2.9304,2.9295,2.9271,2.9268,2.9265,2.9252,2.9248,2.93,2.93,2.93,0,2.9695,2.9654,2.9638,2.9609,2.959,2.9578,2.9549,2.9528,2.9486,2.9472,2.9476,2.9406,2.9381,2.9334,2.9326,2.931,2.93,2.9308,2.927,2.9267,2.9264,2.9252,2.9247,2.9301,2.9301,2.9301,2.93,0,2.965,2.9622,2.9604,2.9567,2.9546,2.9517,2.9494,2.9474,2.9464,2.9446,2.9405,2.9375,2.9337,2.9325,2.9314,2.9276,2.9278,2.9276,2.928,2.9261,2.9248,2.9244,2.9301,2.9301,2.9301,2.9301,0,0,2.9626,2.9582,2.9575,2.9559,2.9523,2.95,2.947,2.9435,2.9418,2.939,2.9363,2.9317,2.9316,2.9293,2.9278,2.9258,2.9233,2.9259,2.9257,2.9254,2.9188,2.9189,2.9184,2.9227,2.9226,2.9225,2.9191,0,2.9596,2.9545,2.953,2.9486,2.9459,2.9448,2.9421,2.9395,2.9378,2.935,2.933,2.9298,2.9298,2.9285,2.9264,2.924,2.9219,2.9243,2.9199,2.9198,2.9208,2.9178,2.9179,2.9148,2.9186,2.9185,2.9185,0,2.9553,2.9528,2.9482,2.945,2.9438,2.9416,2.9383,2.9358,2.9327,2.9316,2.9292,2.9279,2.9245,2.9253,2.9205,2.9221,2.9202,2.9188,2.9186,2.9181,2.919,2.917,2.9137,2.9132,2.9177,2.9178,2.9178,0,2.954,2.9493,2.946,2.9446,2.9408,2.9392,2.9375,2.9346,2.9327,2.9297,2.9284,2.925,2.9231,2.9203,2.9182,2.9189,2.9135,2.9141,2.9122,2.9123,2.9111,2.9111,2.9073,2.91,2.91,2.91,2.91,0,2.9507,2.9479,2.9454,2.9433,2.9401,2.9383,2.9351,2.9333,2.9308,2.9282,2.9269,2.9244,2.9217,2.9188,2.9171,2.9133,2.9124,2.9112,2.9108,2.9113,2.9115,2.91,2.9101,2.9099,2.9099,2.91,2.91,0,2.9486,2.9468,2.9431,2.9399,2.9391,2.9369,2.934,2.9319,2.9301,2.9269,2.926,2.9231,2.9197,2.9173,2.9127,2.9115,2.9075,2.907,2.9086,2.9083,2.9066,2.9068,2.9016,2.9008,2.9042,2.9041,2.9041,0,2.9466,2.9445,2.9412,2.9395,2.9379,2.9352,2.9333,2.9314,2.9294,2.9258,2.924,2.9206,2.9177,2.9122,2.9096,2.9061,2.9055,2.904,2.905,2.9056,2.9054,2.9056,2.9053,2.9038,2.9038,2.9037,2.9037,0,2.9432,2.9424,2.9399,2.937,2.9348,2.9324,2.9299,2.9285,2.9262,2.924,2.9206,2.9184,2.9139,2.9104,2.9068,2.9047,2.9037,2.9035,2.9028,2.9033,2.9043,2.9037,2.9081,2.9035,2.9036,2.9036,2.9036,2.9036,2.941,2.9391,2.9365,2.9337,2.9317,2.9295,2.9273,2.9255,2.9227,2.9191,2.9181,2.9146,2.9115,2.9065,2.9045,2.9015,2.9016,2.9007,2.9004,2.9002,2.9002,2.9049,2.9008,2.9008,2.9008,2.9008,2.9008,0,2.9375,2.9359,2.9333,2.93,2.9278,2.9274,2.9247,2.9227,2.9198,2.9172,2.9145,2.9105,2.9072,2.9044,2.9008,2.899,2.8984,2.8981,2.8982,2.8977,2.9004,2.9013,2.8986,2.8986,2.8986,2.8986,2.8986,2.8986,2.9354,2.9322,2.9311,2.9268,2.9251,2.9219,2.9204,2.9182,2.9161,2.9119,2.9093,2.9076,2.9048,2.9011,2.8979,2.8972,2.8959,2.8956,2.8947,2.8973,2.8975,2.8977,2.8985,2.8954,2.8954,2.8923,2.8922,2.8922]}]]